Location: Newark
(44.6768°N, 22.5302°E)
Time: 02:38:59
(UTC+00:00)

CAS-4B - Visible Passes

Search period start: 02 July 2022 00:00
Search period end: 12 July 2022 00:00
Orbit: 523 x 536 km, 43.0° (Epoch: 01 July)

Date Brightness Start Highest point End Pass type
(mag) Time Alt. Az. Time Alt. Az. Time Alt. Az.
02 Jul ? 00:58:20 27° SW 01:00:07 46° SSE 01:04:01 10° E visible
02 Jul ? 23:10:56 10° ESE 23:10:56 10° ESE 23:11:00 10° ESE visible
03 Jul ? 00:46:07 32° SW 00:47:37 52° SSE 00:51:34 10° E visible
03 Jul ? 22:58:43 10° E 22:58:43 10° E 22:58:44 10° E visible
04 Jul ? 00:33:55 38° SW 00:35:08 56° SSE 00:39:07 10° E visible
04 Jul ? 02:11:00 10° W 02:15:01 68° S 02:19:03 10° ESE visible
05 Jul ? 00:21:42 45° SW 00:22:39 61° S 00:26:39 10° E visible
05 Jul ? 01:58:32 10° W 02:02:32 66° S 02:06:34 10° ESE visible
06 Jul ? 00:09:31 54° SW 00:10:10 65° S 00:14:11 10° E visible
06 Jul ? 01:46:04 10° W 01:50:03 62° S 01:54:03 10° ESE visible
06 Jul ? 23:57:23 64° SSW 23:57:41 68° S 00:01:42 10° E visible
07 Jul ? 01:33:35 10° W 01:37:33 57° SSW 01:41:32 10° ESE visible
07 Jul ? 23:45:22 69° SSE 23:45:22 69° SSE 23:49:13 10° E visible
08 Jul ? 01:21:07 10° W 01:25:03 53° SSW 01:29:00 10° ESE visible
08 Jul ? 23:33:35 50° ESE 23:33:35 50° ESE 23:36:44 10° E visible
09 Jul ? 01:08:49 11° W 01:12:32 47° SSW 01:16:26 10° ESE visible
09 Jul ? 23:22:16 27° ESE 23:22:16 27° ESE 23:24:14 10° E visible
10 Jul ? 00:57:33 19° W 01:00:00 42° SSW 01:03:50 10° SE visible
10 Jul ? 19:45:25 10° SSW 19:47:27 18° SSE 19:47:27 18° SSE visible
11 Jul ? 00:47:11 37° SSW 00:47:28 37° SSW 00:51:12 10° SE visible
11 Jul ? 19:32:34 10° SSW 19:35:46 23° SSE 19:38:00 15° ESE visible
11 Jul ? 21:11:23 10° WSW 21:13:19 27° WSW 21:13:19 27° WSW visible
